Location: Charlotte
(35.2269°N, 80.8433°W)
Time: 01:13:12
(UTC-04:00)

ISS - Visible Passes

Search period start: 27 April 2017 00:00
Search period end: 07 May 2017 00:00
Orbit: 401 x 409 km, 51.6° (Epoch: 27 April)

Date Brightness Start Highest point End Pass type
(mag) Time Alt. Az. Time Alt. Az. Time Alt. Az.
01 May -1.2 06:01:07 10° S 06:03:18 17° SE 06:05:28 10° E visible
03 May -3.0 05:52:13 10° SSW 05:55:22 47° SE 05:58:31 10° ENE visible
04 May -1.8 05:01:53 16° SSE 05:03:22 22° SE 05:05:58 10° ENE visible
05 May -0.8 04:12:01 10° ESE 04:12:01 10° ESE 04:12:10 10° ESE visible
05 May -3.6 05:44:41 13° WSW 05:47:32 57° NW 05:50:46 10° NE visible
06 May -3.7 04:54:42 47° SSW 04:55:24 64° SE 04:58:38 10° NE visible
